Simultaneous Nadir Overpasses (SNOs) Predictions

Prediction of SNOs between GOES-14 and NOAA-20 Satellite Orbit:

Table of predicted SNOs for the next 14.0 days since TLE Epoch: 5/15/2021
Index Date Time (GOES-14) GOES-14 Lat,Lon NOAA-20 Lat,Lon Distance(km) Time Diff (sec)
1 05/16/2021 08:36:39 0.11,-104.16 1.00,-108.14 453.00 80
2 05/17/2021 08:20:34 0.12,-104.16 -0.00,-103.61 63.51 80
3 05/19/2021 20:21:07 -0.12,-104.31 -0.16,-104.39 10.23 80
4 05/22/2021 08:24:11 0.11,-104.14 0.32,-105.13 112.90 80
5 05/23/2021 08:08:06 0.12,-104.14 -0.69,-100.60 403.68 80
6 05/24/2021 20:30:04 -0.10,-104.30 -0.47,-105.92 184.69 80
7 05/25/2021 20:08:39 -0.11,-104.29 0.54,-101.39 330.67 80
8 05/27/2021 08:30:27 0.08,-104.11 0.63,-106.66 290.37 80
9 05/28/2021 08:14:23 0.09,-104.11 -0.38,-102.13 225.86 80
